Time,TemperatureF,DewpointF,PressureIn,WindDirection,WindDirectionDegrees,WindSpeedMPH,WindSpeedGustMPH,Humidity,HourlyPrecipIn,Conditions,Clouds,dailyrainin,SoftwareType,DateUTC
2013-03-15 00:01:00,34.3,29.7,30.13,SE,138,0.0,0.0,83,0.00,,CLR,0.00,VWS V14.01,2013-03-15 05:01:00,
2013-03-15 00:06:00,34.2,29.6,30.13,SE,138,0.0,0.0,83,0.00,,CLR,0.00,VWS V14.01,2013-03-15 05:06:00,
2013-03-15 00:11:00,34.1,29.5,30.13,SE,138,0.0,0.0,83,0.00,,CLR,0.00,VWS V14.01,2013-03-15 05:11:00,
2013-03-15 00:17:00,34.0,29.4,30.12,SE,138,0.0,0.0,83,0.00,,CLR,0.00,VWS V14.01,2013-03-15 05:17:00,
2013-03-15 00:22:00,33.8,29.2,30.12,SE,138,0.0,0.0,83,0.00,,CLR,0.00,VWS V14.01,2013-03-15 05:22:00,
2013-03-15 00:27:00,33.7,29.1,30.12,SE,138,0.0,0.0,83,0.00,,CLR,0.00,VWS V14.01,2013-03-15 05:27:00,
2013-03-15 00:32:00,33.5,29.2,30.12,SE,138,0.0,0.0,84,0.00,,CLR,0.00,VWS V14.01,2013-03-15 05:32:00,
2013-03-15 00:37:00,33.4,29.1,30.12,SE,138,0.0,0.0,84,0.00,,CLR,0.00,VWS V14.01,2013-03-15 05:37:00,
2013-03-15 00:42:00,33.3,29.0,30.11,SE,138,0.0,0.0,84,0.00,,CLR,0.00,VWS V14.01,2013-03-15 05:42:00,
2013-03-15 00:47:00,33.2,28.9,30.11,SE,138,0.0,0.0,84,0.00,,CLR,0.00,VWS V14.01,2013-03-15 05:47:00,
2013-03-15 00:52:00,33.1,28.8,30.11,SE,138,0.0,0.0,84,0.00,,CLR,0.00,VWS V14.01,2013-03-15 05:52:00,
2013-03-15 00:57:00,33.0,29.0,30.11,SE,138,0.0,0.0,85,0.00,,CLR,0.00,VWS V14.01,2013-03-15 05:57:00,
2013-03-15 01:02:00,32.9,28.9,30.10,SE,138,0.0,0.0,85,0.00,,CLR,0.00,VWS V14.01,2013-03-15 06:02:00,
2013-03-15 01:07:00,32.9,28.9,30.10,SE,138,0.0,0.0,85,0.00,,CLR,0.00,VWS V14.01,2013-03-15 06:07:00,
2013-03-15 01:12:00,32.8,28.8,30.10,SE,138,0.0,0.0,85,0.00,,CLR,0.00,VWS V14.01,2013-03-15 06:12:00,
2013-03-15 01:17:00,32.6,28.6,30.10,SE,138,0.0,0.0,85,0.00,,CLR,0.00,VWS V14.01,2013-03-15 06:17:00,
2013-03-15 01:22:00,32.6,28.6,30.10,SE,138,0.0,0.0,85,0.00,,CLR,0.00,VWS V14.01,2013-03-15 06:22:00,
2013-03-15 01:27:00,32.5,28.8,30.10,SE,138,0.0,0.0,86,0.00,,CLR,0.00,VWS V14.01,2013-03-15 06:27:00,
2013-03-15 01:32:00,32.4,28.7,30.10,SE,138,0.0,0.0,86,0.00,,CLR,0.00,VWS V14.01,2013-03-15 06:32:00,
2013-03-15 01:37:00,32.4,30.3,30.09,SE,138,0.0,0.0,92,0.00,,CLR,0.00,VWS V14.01,2013-03-15 06:37:00,
2013-03-15 01:43:00,32.2,28.5,30.09,SE,138,0.0,0.0,86,0.00,,CLR,0.00,VWS V14.01,2013-03-15 06:43:00,
2013-03-15 01:48:00,32.0,28.3,30.09,SE,138,0.0,0.0,86,0.00,,CLR,0.00,VWS V14.01,2013-03-15 06:48:00,
2013-03-15 01:53:00,31.9,28.2,30.09,SE,138,0.0,0.0,86,0.00,,CLR,0.00,VWS V14.01,2013-03-15 06:53:00,
2013-03-15 01:58:00,31.7,28.0,30.09,SE,138,0.0,0.0,86,0.00,,CLR,0.00,VWS V14.01,2013-03-15 06:58:00,
2013-03-15 02:03:00,31.6,27.9,30.08,SE,138,0.0,0.0,86,0.00,,CLR,0.00,VWS V14.01,2013-03-15 07:03:00,
2013-03-15 02:08:00,31.4,27.7,30.08,SE,138,0.0,0.0,86,0.00,,CLR,0.00,VWS V14.01,2013-03-15 07:08:00,
2013-03-15 02:13:00,31.2,27.5,30.08,SE,138,0.0,0.0,86,0.00,,CLR,0.00,VWS V14.01,2013-03-15 07:13:00,
2013-03-15 02:18:00,31.1,27.7,30.08,SE,138,0.0,0.0,87,0.00,,CLR,0.00,VWS V14.01,2013-03-15 07:18:00,
2013-03-15 02:23:00,31.0,27.6,30.07,SE,138,0.0,0.0,87,0.00,,CLR,0.00,VWS V14.01,2013-03-15 07:23:00,
2013-03-15 02:28:00,30.9,27.5,30.08,SE,138,0.0,0.0,87,0.00,,CLR,0.00,VWS V14.01,2013-03-15 07:28:00,
2013-03-15 02:33:00,30.8,27.4,30.07,SE,138,0.0,0.0,87,0.00,,CLR,0.00,VWS V14.01,2013-03-15 07:33:00,
2013-03-15 02:38:00,30.7,27.3,30.07,SE,138,0.0,0.0,87,0.00,,CLR,0.00,VWS V14.01,2013-03-15 07:38:00,
2013-03-15 02:43:00,30.6,27.2,30.07,SE,138,0.0,0.0,87,0.00,,CLR,0.00,VWS V14.01,2013-03-15 07:43:00,
2013-03-15 02:48:00,30.6,27.5,30.07,SE,138,0.0,0.0,88,0.00,,CLR,0.00,VWS V14.01,2013-03-15 07:48:00,
2013-03-15 02:53:00,30.6,27.5,30.07,SE,138,0.0,0.0,88,0.00,,CLR,0.00,VWS V14.01,2013-03-15 07:53:00,
2013-03-15 02:58:00,30.5,27.4,30.07,SE,138,0.0,0.0,88,0.00,,CLR,0.00,VWS V14.01,2013-03-15 07:58:00,
2013-03-15 03:03:00,30.5,27.4,30.06,SE,138,0.0,0.0,88,0.00,,CLR,0.00,VWS V14.01,2013-03-15 08:03:00,
2013-03-15 03:08:00,30.4,27.3,30.06,SE,138,0.0,0.0,88,0.00,,CLR,0.00,VWS V14.01,2013-03-15 08:08:00,
2013-03-15 03:13:00,30.3,27.2,30.06,SE,138,0.0,0.0,88,0.00,,CLR,0.00,VWS V14.01,2013-03-15 08:13:00,
2013-03-15 03:18:00,30.2,27.1,30.06,SE,138,0.0,0.0,88,0.00,,CLR,0.00,VWS V14.01,2013-03-15 08:18:00,
2013-03-15 03:23:00,30.1,27.0,30.05,SE,138,0.0,0.0,88,0.00,,CLR,0.00,VWS V14.01,2013-03-15 08:23:00,
2013-03-15 03:28:00,30.0,26.9,30.05,SE,138,0.0,0.0,88,0.00,,CLR,0.00,VWS V14.01,2013-03-15 08:28:00,
2013-03-15 03:33:00,29.9,26.8,30.05,SE,138,0.0,0.0,88,0.00,,CLR,0.00,VWS V14.01,2013-03-15 08:33:00,
2013-03-15 03:38:00,29.8,26.7,30.05,SE,138,0.0,0.0,88,0.00,,CLR,0.00,VWS V14.01,2013-03-15 08:38:00,
2013-03-15 03:43:00,29.7,26.6,30.04,SE,138,0.0,0.0,88,0.00,,CLR,0.00,VWS V14.01,2013-03-15 08:43:00,
2013-03-15 03:48:00,29.6,26.8,30.04,SE,138,0.0,0.0,89,0.00,,CLR,0.00,VWS V14.01,2013-03-15 08:48:00,
2013-03-15 03:53:00,29.6,26.8,30.03,SE,138,0.0,0.0,89,0.00,,CLR,0.00,VWS V14.01,2013-03-15 08:53:00,
2013-03-15 03:58:00,29.5,26.7,30.03,SE,138,0.0,0.0,89,0.00,,CLR,0.00,VWS V14.01,2013-03-15 08:58:00,
2013-03-15 04:03:00,29.4,26.8,30.03,SE,138,0.0,0.0,90,0.00,,CLR,0.00,VWS V14.01,2013-03-15 09:03:00,
2013-03-15 04:08:00,29.4,26.8,30.03,SE,138,0.0,0.0,90,0.00,,CLR,0.00,VWS V14.01,2013-03-15 09:08:00,
2013-03-15 04:13:00,29.3,26.7,30.02,SE,138,0.0,0.0,90,0.00,,CLR,0.00,VWS V14.01,2013-03-15 09:13:00,
2013-03-15 04:19:00,29.2,26.6,30.02,SE,138,0.0,0.0,90,0.00,,CLR,0.00,VWS V14.01,2013-03-15 09:19:00,
2013-03-15 04:24:00,29.2,26.6,30.02,SE,138,0.0,0.0,90,0.00,,CLR,0.00,VWS V14.01,2013-03-15 09:24:00,
2013-03-15 04:29:00,29.2,26.6,30.02,SE,138,0.0,0.0,90,0.00,,CLR,0.00,VWS V14.01,2013-03-15 09:29:00,
2013-03-15 04:34:00,29.3,27.0,30.01,SE,138,0.0,0.0,91,0.00,,CLR,0.00,VWS V14.01,2013-03-15 09:34:00,
2013-03-15 04:39:00,29.3,27.0,30.01,SE,138,0.0,0.0,91,0.00,,CLR,0.00,VWS V14.01,2013-03-15 09:39:00,
2013-03-15 04:44:00,29.4,27.1,30.01,SE,138,0.0,0.0,91,0.00,,CLR,0.00,VWS V14.01,2013-03-15 09:44:00,
2013-03-15 04:49:00,29.4,27.1,30.01,SE,138,0.0,0.0,91,0.00,,CLR,0.00,VWS V14.01,2013-03-15 09:49:00,
2013-03-15 04:54:00,29.2,26.9,30.00,SE,138,0.0,0.0,91,0.00,,CLR,0.00,VWS V14.01,2013-03-15 09:54:00,
2013-03-15 04:59:00,29.2,26.9,30.01,SE,138,0.0,0.0,91,0.00,,CLR,0.00,VWS V14.01,2013-03-15 09:59:00,
2013-03-15 05:04:00,29.0,26.7,30.00,SE,138,0.0,0.0,91,0.00,,CLR,0.00,VWS V14.01,2013-03-15 10:04:00,
2013-03-15 05:09:00,28.9,26.6,30.00,SE,138,0.0,0.0,91,0.00,,CLR,0.00,VWS V14.01,2013-03-15 10:09:00,
2013-03-15 05:14:00,28.9,26.6,30.00,SE,138,0.0,0.0,91,0.00,,CLR,0.00,VWS V14.01,2013-03-15 10:14:00,
2013-03-15 05:19:00,28.9,26.6,30.00,SE,138,0.0,0.0,91,0.00,,CLR,0.00,VWS V14.01,2013-03-15 10:19:00,
2013-03-15 05:24:00,28.8,26.5,30.00,SE,138,0.0,0.0,91,0.00,,CLR,0.00,VWS V14.01,2013-03-15 10:24:00,
2013-03-15 05:29:00,28.7,26.4,30.01,SE,138,0.0,0.0,91,0.00,,CLR,0.00,VWS V14.01,2013-03-15 10:29:00,
2013-03-15 05:34:00,28.5,26.2,30.01,SE,138,0.0,0.0,91,0.00,,CLR,0.00,VWS V14.01,2013-03-15 10:34:00,
2013-03-15 05:39:00,28.4,26.1,30.01,SE,138,0.0,0.0,91,0.00,,CLR,0.00,VWS V14.01,2013-03-15 10:39:00,
2013-03-15 05:44:00,28.4,26.1,30.01,SE,138,0.0,0.0,91,0.00,,CLR,0.00,VWS V14.01,2013-03-15 10:44:00,
2013-03-15 05:49:00,28.3,26.0,30.01,SE,138,0.0,0.0,91,0.00,,CLR,0.00,VWS V14.01,2013-03-15 10:49:00,
2013-03-15 05:54:00,28.2,25.9,30.01,SE,138,0.0,0.0,91,0.00,,CLR,0.00,VWS V14.01,2013-03-15 10:54:00,
2013-03-15 05:59:00,28.2,25.9,30.00,SE,138,0.0,0.0,91,0.00,,CLR,0.00,VWS V14.01,2013-03-15 10:59:00,
2013-03-15 06:04:00,28.1,25.8,30.00,SE,138,0.0,0.0,91,0.00,,CLR,0.00,VWS V14.01,2013-03-15 11:04:00,
2013-03-15 06:09:00,28.0,25.7,30.01,SE,138,0.0,0.0,91,0.00,,CLR,0.00,VWS V14.01,2013-03-15 11:09:00,
2013-03-15 06:14:00,27.9,25.6,30.00,SE,138,0.0,0.0,91,0.00,,CLR,0.00,VWS V14.01,2013-03-15 11:14:00,
2013-03-15 06:19:00,27.9,25.6,30.01,SE,138,0.0,0.0,91,0.00,,CLR,0.00,VWS V14.01,2013-03-15 11:19:00,
2013-03-15 06:24:00,27.9,25.6,30.01,SE,138,0.0,0.0,91,0.00,,CLR,0.00,VWS V14.01,2013-03-15 11:24:00,
2013-03-15 06:29:00,27.9,25.6,30.01,SE,138,0.0,0.0,91,0.00,,CLR,0.00,VWS V14.01,2013-03-15 11:29:00,
2013-03-15 06:34:00,28.0,26.0,30.00,SE,138,0.0,0.0,92,0.00,,CLR,0.00,VWS V14.01,2013-03-15 11:34:00,
2013-03-15 06:39:00,28.0,26.0,30.01,SE,138,0.0,0.0,92,0.00,,CLR,0.00,VWS V14.01,2013-03-15 11:39:00,
2013-03-15 06:44:00,28.1,26.1,30.00,SE,138,0.0,0.0,92,0.00,,CLR,0.00,VWS V14.01,2013-03-15 11:44:00,
2013-03-15 06:49:00,28.1,26.1,30.00,SE,138,0.0,0.0,92,0.00,,CLR,0.00,VWS V14.01,2013-03-15 11:49:00,
2013-03-15 06:54:00,28.0,26.0,30.00,SE,138,0.0,0.0,92,0.00,,CLR,0.00,VWS V14.01,2013-03-15 11:54:00,
2013-03-15 06:59:00,28.1,26.1,30.00,SE,138,0.0,0.0,92,0.00,,CLR,0.00,VWS V14.01,2013-03-15 11:59:00,
2013-03-15 07:04:00,28.1,26.1,30.00,SE,138,0.0,0.0,92,0.00,,SKC,0.00,VWS V14.01,2013-03-15 12:04:00,
2013-03-15 07:09:00,28.0,26.0,30.00,SE,138,0.0,0.0,92,0.00,,SKC,0.00,VWS V14.01,2013-03-15 12:09:00,
2013-03-15 07:14:00,28.0,26.0,30.00,SE,138,0.0,0.0,92,0.00,,SKC,0.00,VWS V14.01,2013-03-15 12:14:00,
2013-03-15 07:19:00,28.0,26.0,30.00,SE,138,0.0,0.0,92,0.00,,SKC,0.00,VWS V14.01,2013-03-15 12:19:00,
2013-03-15 07:24:00,28.0,26.0,30.00,SE,138,0.0,0.0,92,0.00,,SKC,0.00,VWS V14.01,2013-03-15 12:24:00,
2013-03-15 07:29:00,28.0,26.0,30.00,SE,138,0.0,0.0,92,0.00,,SKC,0.00,VWS V14.01,2013-03-15 12:29:00,
2013-03-15 07:34:00,28.1,26.1,30.00,SE,138,0.0,0.0,92,0.00,,SKC,0.00,VWS V14.01,2013-03-15 12:34:00,
2013-03-15 07:39:00,28.3,26.3,30.00,SE,138,0.0,0.0,92,0.00,,SKC,0.00,VWS V14.01,2013-03-15 12:39:00,
2013-03-15 07:44:00,28.4,26.4,30.00,SE,138,0.0,0.0,92,0.00,,SKC,0.00,VWS V14.01,2013-03-15 12:44:00,
2013-03-15 07:49:00,28.5,26.5,30.00,SE,138,0.0,0.0,92,0.00,,SKC,0.00,VWS V14.01,2013-03-15 12:49:00,
2013-03-15 07:54:00,28.7,26.7,30.00,SE,138,0.0,0.0,92,0.00,,SKC,0.00,VWS V14.01,2013-03-15 12:54:00,
2013-03-15 07:59:00,28.9,27.1,30.00,SE,138,0.0,0.0,93,0.00,,BKN200,0.00,VWS V14.01,2013-03-15 12:59:00,
2013-03-15 08:04:00,29.2,27.4,30.00,SE,138,0.0,0.0,93,0.00,,BKN200,0.00,VWS V14.01,2013-03-15 13:04:00,
2013-03-15 08:09:00,29.6,27.8,30.01,SE,138,0.0,0.0,93,0.00,,BKN200,0.00,VWS V14.01,2013-03-15 13:09:00,
2013-03-15 08:14:00,30.1,28.3,30.01,SE,138,0.0,0.0,93,0.00,,BKN200,0.00,VWS V14.01,2013-03-15 13:14:00,
2013-03-15 08:19:00,30.3,28.5,30.01,SE,138,0.0,0.0,93,0.00,,BKN200,0.00,VWS V14.01,2013-03-15 13:19:00,
2013-03-15 08:24:00,30.5,28.7,30.00,SE,138,0.0,0.0,93,0.00,,BKN200,0.00,VWS V14.01,2013-03-15 13:24:00,
2013-03-15 08:29:00,30.8,29.3,30.01,SE,138,0.0,0.0,94,0.00,,BKN200,0.00,VWS V14.01,2013-03-15 13:29:00,
2013-03-15 08:34:00,31.5,30.0,30.00,SE,138,0.0,0.0,94,0.00,,BKN200,0.00,VWS V14.01,2013-03-15 13:34:00,
2013-03-15 08:39:00,32.3,30.8,30.00,SE,138,0.0,0.0,94,0.00,,BKN200,0.00,VWS V14.01,2013-03-15 13:39:00,
2013-03-15 08:44:00,33.0,31.5,30.00,SE,138,0.0,0.0,94,0.00,,BKN200,0.00,VWS V14.01,2013-03-15 13:44:00,
2013-03-15 08:49:00,33.6,32.1,30.00,SE,138,0.0,0.0,94,0.00,,BKN200,0.00,VWS V14.01,2013-03-15 13:49:00,
2013-03-15 08:54:00,34.3,32.8,30.00,SE,138,3.0,3.0,94,0.00,,BKN200,0.00,VWS V14.01,2013-03-15 13:54:00,
2013-03-15 08:59:00,35.1,33.5,29.99,SE,138,0.0,1.5,94,0.00,,BKN200,0.00,VWS V14.01,2013-03-15 13:59:00,
2013-03-15 09:04:00,35.9,34.3,29.99,SE,138,0.0,6.0,94,0.00,,BKN250,0.00,VWS V14.01,2013-03-15 14:04:00,
2013-03-15 09:09:00,36.4,34.6,29.99,SE,138,0.0,6.0,93,0.00,,BKN250,0.00,VWS V14.01,2013-03-15 14:09:00,
2013-03-15 09:14:00,37.0,35.2,29.99,SE,138,0.0,6.0,93,0.00,,BKN250,0.00,VWS V14.01,2013-03-15 14:14:00,
2013-03-15 09:19:00,37.5,35.4,29.99,SE,138,0.0,6.0,92,0.00,,BKN250,0.00,VWS V14.01,2013-03-15 14:19:00,
2013-03-15 09:24:00,38.4,36.0,29.99,SE,138,0.0,6.0,91,0.00,,BKN250,0.00,VWS V14.01,2013-03-15 14:24:00,
2013-03-15 09:30:00,39.1,36.4,29.99,SE,138,0.0,1.5,90,0.00,,BKN250,0.00,VWS V14.01,2013-03-15 14:30:00,
2013-03-15 09:35:00,39.9,36.9,29.99,SE,138,0.0,6.0,89,0.00,,BKN250,0.00,VWS V14.01,2013-03-15 14:35:00,
2013-03-15 09:40:00,41.0,37.4,29.99,SE,138,3.0,6.0,87,0.00,,BKN250,0.00,VWS V14.01,2013-03-15 14:40:00,
2013-03-15 09:45:00,41.5,37.3,29.99,SE,138,0.0,6.0,85,0.00,,BKN250,0.00,VWS V14.01,2013-03-15 14:45:00,
2013-03-15 09:50:00,42.1,37.6,29.99,SE,138,0.0,6.0,84,0.00,,BKN250,0.00,VWS V14.01,2013-03-15 14:50:00,
2013-03-15 09:55:00,42.9,38.4,29.99,SE,138,0.0,6.0,84,0.00,,BKN250,0.00,VWS V14.01,2013-03-15 14:55:00,
2013-03-15 10:00:00,43.6,38.8,29.99,SSE,159,0.0,6.0,83,0.00,,BKN250,0.00,VWS V14.01,2013-03-15 15:00:00,
2013-03-15 10:05:00,44.5,39.0,29.99,SSE,164,0.0,7.5,81,0.00,,BKN250,0.00,VWS V14.01,2013-03-15 15:05:00,
2013-03-15 10:10:00,45.1,39.3,29.99,SSE,165,0.0,9.0,80,0.00,,BKN250,0.00,VWS V14.01,2013-03-15 15:10:00,
2013-03-15 10:15:00,45.8,39.7,29.99,SSE,165,0.0,9.0,79,0.00,,BKN250,0.00,VWS V14.01,2013-03-15 15:15:00,
2013-03-15 10:20:00,46.3,39.8,29.99,SSE,165,0.0,9.0,78,0.00,,BKN250,0.00,VWS V14.01,2013-03-15 15:20:00,
2013-03-15 10:25:00,46.8,40.0,29.99,SSE,165,6.0,9.0,77,0.00,,BKN250,0.00,VWS V14.01,2013-03-15 15:25:00,
2013-03-15 10:30:00,47.4,40.2,29.98,SSE,165,3.0,3.0,76,0.00,,BKN250,0.00,VWS V14.01,2013-03-15 15:30:00,
2013-03-15 10:35:00,48.0,40.5,29.98,SSE,165,3.0,7.5,75,0.00,,BKN250,0.00,VWS V14.01,2013-03-15 15:35:00,
2013-03-15 10:40:00,48.7,41.1,29.98,SSE,165,6.0,7.5,75,0.00,,BKN250,0.00,VWS V14.01,2013-03-15 15:40:00,
2013-03-15 10:45:00,49.4,41.1,29.98,SSE,165,7.5,7.5,73,0.00,,BKN250,0.00,VWS V14.01,2013-03-15 15:45:00,
2013-03-15 10:50:00,50.0,41.3,29.97,SSE,165,1.5,7.5,72,0.00,,BKN250,0.00,VWS V14.01,2013-03-15 15:50:00,
2013-03-15 10:55:00,50.6,41.9,29.97,SSE,166,0.0,7.5,72,0.00,,BKN250,0.00,VWS V14.01,2013-03-15 15:55:00,
2013-03-15 11:00:00,51.1,42.0,29.97,SSE,166,1.5,6.0,71,0.00,,BKN250,0.00,VWS V14.01,2013-03-15 16:00:00,
2013-03-15 11:05:00,51.4,42.0,29.97,SSE,166,0.0,6.0,70,0.00,,BKN250,0.00,VWS V14.01,2013-03-15 16:05:00,
2013-03-15 11:10:00,52.0,42.5,29.96,South,172,6.0,7.5,70,0.00,,BKN250,0.00,VWS V14.01,2013-03-15 16:10:00,
2013-03-15 11:15:00,52.5,42.6,29.96,South,172,1.5,7.5,69,0.00,,BKN250,0.00,VWS V14.01,2013-03-15 16:15:00,
2013-03-15 11:20:00,53.2,42.5,29.96,South,172,0.0,7.5,67,0.00,,BKN250,0.00,VWS V14.01,2013-03-15 16:20:00,
2013-03-15 11:25:00,53.8,43.1,29.96,South,172,0.0,7.5,67,0.00,,BKN250,0.00,VWS V14.01,2013-03-15 16:25:00,
2013-03-15 11:30:00,54.6,43.9,29.96,South,172,1.5,3.0,67,0.00,,BKN250,0.00,VWS V14.01,2013-03-15 16:30:00,
2013-03-15 11:35:00,55.1,43.6,29.96,South,172,0.0,6.0,65,0.00,,BKN250,0.00,VWS V14.01,2013-03-15 16:35:00,
2013-03-15 11:40:00,55.5,43.5,29.96,South,172,0.0,7.5,64,0.00,,BKN250,0.00,VWS V14.01,2013-03-15 16:40:00,
2013-03-15 11:45:00,55.9,43.9,29.96,South,172,0.0,7.5,64,0.00,,BKN250,0.00,VWS V14.01,2013-03-15 16:45:00,
2013-03-15 11:50:00,56.6,44.2,29.96,South,172,0.0,7.5,63,0.00,,BKN250,0.00,VWS V14.01,2013-03-15 16:50:00,
2013-03-15 11:55:00,57.1,44.6,29.96,South,172,0.0,7.5,63,0.00,,BKN250,0.00,VWS V14.01,2013-03-15 16:55:00,
2013-03-15 12:00:00,57.5,44.6,29.96,South,172,0.0,1.5,62,0.00,,BKN250,0.00,VWS V14.01,2013-03-15 17:00:00,
2013-03-15 12:05:00,58.0,45.1,29.96,South,179,0.0,6.0,62,0.00,,SCT250,0.00,VWS V14.01,2013-03-15 17:05:00,
2013-03-15 12:10:00,58.8,45.0,29.96,South,179,1.5,6.0,60,0.00,,SCT250,0.00,VWS V14.01,2013-03-15 17:10:00,
2013-03-15 12:15:00,59.2,45.3,29.95,South,175,0.0,7.5,60,0.00,,SCT250,0.00,VWS V14.01,2013-03-15 17:15:00,
2013-03-15 12:20:00,59.7,45.4,29.95,South,175,0.0,7.5,59,0.00,,SCT250,0.00,VWS V14.01,2013-03-15 17:20:00,
2013-03-15 12:25:00,60.1,45.3,29.95,South,175,0.0,7.5,58,0.00,,SCT250,0.00,VWS V14.01,2013-03-15 17:25:00,
2013-03-15 12:30:00,60.4,46.0,29.95,South,175,1.5,3.0,59,0.00,,SCT250,0.00,VWS V14.01,2013-03-15 17:30:00,
2013-03-15 12:35:00,60.8,45.0,29.94,South,175,0.0,7.5,56,0.00,,SCT250,0.00,VWS V14.01,2013-03-15 17:35:00,
2013-03-15 12:40:00,61.1,46.2,29.94,South,175,3.0,7.5,58,0.00,,SCT250,0.00,VWS V14.01,2013-03-15 17:40:00,
2013-03-15 12:45:00,61.5,45.7,29.94,South,178,0.0,7.5,56,0.00,,SCT250,0.00,VWS V14.01,2013-03-15 17:45:00,
2013-03-15 12:50:00,62.1,46.7,29.94,South,179,9.0,9.0,57,0.00,,SCT250,0.00,VWS V14.01,2013-03-15 17:50:00,
2013-03-15 12:55:00,62.7,46.3,29.94,SSW,213,1.5,10.5,55,0.00,,SCT250,0.00,VWS V14.01,2013-03-15 17:55:00,
2013-03-15 13:00:00,63.1,46.2,29.94,South,185,1.5,9.0,54,0.00,,SCT250,0.00,VWS V14.01,2013-03-15 18:00:00,
2013-03-15 13:05:00,63.4,46.5,29.93,SSW,192,1.5,9.0,54,0.00,,SCT250,0.00,VWS V14.01,2013-03-15 18:05:00,
2013-03-15 13:10:00,63.9,46.5,29.93,South,173,0.0,9.0,53,0.00,,SCT250,0.00,VWS V14.01,2013-03-15 18:10:00,
2013-03-15 13:15:00,64.4,46.9,29.93,SSE,147,3.0,9.0,53,0.00,,SCT250,0.00,VWS V14.01,2013-03-15 18:15:00,
2013-03-15 13:21:00,64.7,46.7,29.91,SSW,202,6.0,9.0,52,0.00,,SCT250,0.00,VWS V14.01,2013-03-15 18:21:00,
2013-03-15 13:26:00,64.6,46.6,29.91,SSW,202,1.5,9.0,52,0.00,,SCT250,0.00,VWS V14.01,2013-03-15 18:26:00,
2013-03-15 13:31:00,65.2,47.2,29.91,SSE,166,7.5,10.5,52,0.00,,SCT250,0.00,VWS V14.01,2013-03-15 18:31:00,
2013-03-15 13:36:00,65.8,47.2,29.90,SSW,201,7.5,10.5,51,0.00,,SCT250,0.00,VWS V14.01,2013-03-15 18:36:00,
2013-03-15 13:41:00,65.8,47.2,29.90,South,174,1.5,10.5,51,0.00,,SCT250,0.00,VWS V14.01,2013-03-15 18:41:00,
2013-03-15 13:46:00,66.3,47.7,29.90,SSE,167,1.5,10.5,51,0.00,,SCT250,0.00,VWS V14.01,2013-03-15 18:46:00,
2013-03-15 13:51:00,67.1,47.9,29.90,SW,221,0.0,10.5,50,0.00,,SCT250,0.00,VWS V14.01,2013-03-15 18:51:00,
2013-03-15 13:56:00,67.5,47.7,29.89,SSW,203,6.0,10.5,49,0.00,,SCT250,0.00,VWS V14.01,2013-03-15 18:56:00,
2013-03-15 14:01:00,67.4,47.0,29.89,SSW,213,3.0,9.0,48,0.00,,SCT250,0.00,VWS V14.01,2013-03-15 19:01:00,
2013-03-15 14:06:00,67.9,47.5,29.88,SSW,201,6.0,10.5,48,0.00,,SCT250,0.00,VWS V14.01,2013-03-15 19:06:00,
2013-03-15 14:11:00,68.7,47.1,29.88,South,184,7.5,10.5,46,0.00,,SCT250,0.00,VWS V14.01,2013-03-15 19:11:00,
2013-03-15 14:16:00,69.4,47.7,29.87,South,174,7.5,10.5,46,0.00,,SCT250,0.00,VWS V14.01,2013-03-15 19:16:00,
2013-03-15 14:21:00,70.4,47.5,29.87,ESE,117,0.0,10.5,44,0.00,,SCT250,0.00,VWS V14.01,2013-03-15 19:21:00,
2013-03-15 14:26:00,70.8,47.2,29.86,SW,216,3.0,10.5,43,0.00,,SCT250,0.00,VWS V14.01,2013-03-15 19:26:00,
2013-03-15 14:32:00,70.8,47.8,29.86,South,170,9.0,12.0,44,0.00,,SCT250,0.00,VWS V14.01,2013-03-15 19:32:00,
2013-03-15 14:37:00,71.1,46.2,29.86,South,184,6.0,13.5,41,0.00,,SCT250,0.00,VWS V14.01,2013-03-15 19:37:00,
2013-03-15 14:42:00,70.9,47.9,29.85,South,175,10.5,13.5,44,0.00,,SCT250,0.00,VWS V14.01,2013-03-15 19:42:00,
2013-03-15 14:47:00,71.2,47.0,29.85,SSE,162,1.5,13.5,42,0.00,,SCT250,0.00,VWS V14.01,2013-03-15 19:47:00,
2013-03-15 14:52:00,71.8,47.5,29.84,SSE,160,7.5,13.5,42,0.00,,SCT250,0.00,VWS V14.01,2013-03-15 19:52:00,
2013-03-15 14:57:00,71.9,47.6,29.85,South,183,4.5,13.5,42,0.00,,SCT250,0.00,VWS V14.01,2013-03-15 19:57:00,
2013-03-15 15:02:00,71.0,46.8,29.84,SSW,200,9.0,9.0,42,0.00,,SCT250,0.00,VWS V14.01,2013-03-15 20:02:00,
2013-03-15 15:07:00,70.6,46.4,29.84,South,186,0.0,12.0,42,0.00,,SCT250,0.00,VWS V14.01,2013-03-15 20:07:00,
2013-03-15 15:12:00,71.0,46.1,29.84,SSE,165,0.0,12.0,41,0.00,,SCT250,0.00,VWS V14.01,2013-03-15 20:12:00,
2013-03-15 15:17:00,71.9,46.3,29.84,SSE,161,3.0,12.0,40,0.00,,SCT250,0.00,VWS V14.01,2013-03-15 20:17:00,
2013-03-15 15:22:00,72.1,46.5,29.84,South,172,6.0,12.0,40,0.00,,SCT250,0.00,VWS V14.01,2013-03-15 20:22:00,
2013-03-15 15:27:00,71.7,45.5,29.84,South,171,7.5,12.0,39,0.00,,SCT250,0.00,VWS V14.01,2013-03-15 20:27:00,
2013-03-15 15:32:00,71.6,44.7,29.84,SSW,201,3.0,10.5,38,0.00,,SCT250,0.00,VWS V14.01,2013-03-15 20:32:00,
2013-03-15 15:37:00,71.5,45.3,29.84,South,183,0.0,10.5,39,0.00,,SCT250,0.00,VWS V14.01,2013-03-15 20:37:00,
2013-03-15 15:42:00,71.9,46.3,29.84,South,170,0.0,10.5,40,0.00,,SCT250,0.00,VWS V14.01,2013-03-15 20:42:00,
2013-03-15 15:47:00,72.1,45.8,29.83,SSE,163,7.5,10.5,39,0.00,,SCT250,0.00,VWS V14.01,2013-03-15 20:47:00,
2013-03-15 15:52:00,72.3,46.0,29.83,SSE,160,1.5,10.5,39,0.00,,SCT250,0.00,VWS V14.01,2013-03-15 20:52:00,
2013-03-15 15:57:00,72.4,46.1,29.83,SSE,163,0.0,10.5,39,0.00,,SCT250,0.00,VWS V14.01,2013-03-15 20:57:00,
2013-03-15 16:02:00,72.3,45.3,29.82,SSE,163,1.5,6.0,38,0.00,,BKN200,0.00,VWS V14.01,2013-03-15 21:02:00,
2013-03-15 16:07:00,72.1,46.5,29.82,South,169,6.0,9.0,40,0.00,,BKN200,0.00,VWS V14.01,2013-03-15 21:07:00,
2013-03-15 16:12:00,72.1,45.8,29.82,South,171,1.5,9.0,39,0.00,,BKN200,0.00,VWS V14.01,2013-03-15 21:12:00,
2013-03-15 16:17:00,71.9,44.9,29.81,South,190,1.5,10.5,38,0.00,,BKN200,0.00,VWS V14.01,2013-03-15 21:17:00,
2013-03-15 16:22:00,71.8,44.8,29.81,South,170,6.0,10.5,38,0.00,,BKN200,0.00,VWS V14.01,2013-03-15 21:22:00,
2013-03-15 16:27:00,71.8,46.2,29.81,SSE,167,3.0,10.5,40,0.00,,BKN200,0.00,VWS V14.01,2013-03-15 21:27:00,
2013-03-15 16:32:00,71.7,46.1,29.81,SSE,161,3.0,10.5,40,0.00,,BKN200,0.00,VWS V14.01,2013-03-15 21:32:00,
2013-03-15 16:37:00,71.7,46.1,29.80,South,188,6.0,13.5,40,0.00,,BKN200,0.00,VWS V14.01,2013-03-15 21:37:00,
2013-03-15 16:42:00,71.6,46.7,29.80,South,173,13.5,13.5,41,0.00,,BKN200,0.00,VWS V14.01,2013-03-15 21:42:00,
2013-03-15 16:47:00,71.5,47.8,29.80,South,175,12.0,15.0,43,0.00,,BKN200,0.00,VWS V14.01,2013-03-15 21:47:00,
2013-03-15 16:52:00,71.3,47.7,29.80,South,190,9.0,19.5,43,0.00,,BKN200,0.00,VWS V14.01,2013-03-15 21:52:00,
2013-03-15 16:57:00,71.2,48.8,29.80,South,174,7.5,19.5,45,0.00,,BKN200,0.00,VWS V14.01,2013-03-15 21:57:00,
2013-03-15 17:02:00,70.9,49.1,29.80,South,171,12.0,13.5,46,0.00,,BKN200,0.00,VWS V14.01,2013-03-15 22:02:00,
2013-03-15 17:07:00,70.4,49.2,29.80,South,171,10.5,16.5,47,0.00,,BKN200,0.00,VWS V14.01,2013-03-15 22:07:00,
2013-03-15 17:13:00,69.9,49.3,29.79,SSE,166,9.0,16.5,48,0.00,,BKN200,0.00,VWS V14.01,2013-03-15 22:13:00,
2013-03-15 17:18:00,69.6,49.6,29.79,South,173,12.0,16.5,49,0.00,,BKN200,0.00,VWS V14.01,2013-03-15 22:18:00,
2013-03-15 17:23:00,69.3,49.9,29.78,South,171,12.0,16.5,50,0.00,,BKN200,0.00,VWS V14.01,2013-03-15 22:23:00,
2013-03-15 17:28:00,69.1,50.2,29.78,SSE,159,12.0,16.5,51,0.00,,BKN200,0.00,VWS V14.01,2013-03-15 22:28:00,
2013-03-15 17:33:00,68.9,50.0,29.78,South,174,10.5,16.5,51,0.00,,BKN200,0.00,VWS V14.01,2013-03-15 22:33:00,
2013-03-15 17:38:00,68.7,50.4,29.78,South,177,9.0,16.5,52,0.00,,BKN200,0.00,VWS V14.01,2013-03-15 22:38:00,
2013-03-15 17:43:00,68.4,50.1,29.78,South,178,9.0,16.5,52,0.00,,BKN200,0.00,VWS V14.01,2013-03-15 22:43:00,
2013-03-15 17:48:00,68.3,50.5,29.78,SSE,159,10.5,18.0,53,0.00,,BKN200,0.00,VWS V14.01,2013-03-15 22:48:00,
2013-03-15 17:53:00,68.1,50.3,29.78,South,169,9.0,18.0,53,0.00,,BKN200,0.00,VWS V14.01,2013-03-15 22:53:00,
2013-03-15 17:58:00,67.9,50.2,29.78,South,178,7.5,18.0,53,0.00,,BKN200,0.00,VWS V14.01,2013-03-15 22:58:00,
2013-03-15 18:03:00,67.7,50.0,29.78,SSW,200,1.5,12.0,53,0.00,,BKN200,0.00,VWS V14.01,2013-03-15 23:03:00,
2013-03-15 18:08:00,67.6,49.9,29.78,SSE,165,9.0,12.0,53,0.00,,BKN200,0.00,VWS V14.01,2013-03-15 23:08:00,
2013-03-15 18:13:00,67.5,49.8,29.77,SSE,167,3.0,12.0,53,0.00,,BKN200,0.00,VWS V14.01,2013-03-15 23:13:00,
2013-03-15 18:18:00,67.4,49.7,29.77,SSE,165,7.5,12.0,53,0.00,,BKN200,0.00,VWS V14.01,2013-03-15 23:18:00,
2013-03-15 18:23:00,67.3,50.1,29.77,SSE,161,7.5,12.0,54,0.00,,BKN200,0.00,VWS V14.01,2013-03-15 23:23:00,
2013-03-15 18:28:00,67.2,50.0,29.77,South,177,0.0,12.0,54,0.00,,BKN200,0.00,VWS V14.01,2013-03-15 23:28:00,
2013-03-15 18:33:00,67.1,49.9,29.77,SSE,157,7.5,10.5,54,0.00,,BKN200,0.00,VWS V14.01,2013-03-15 23:33:00,
2013-03-15 18:38:00,67.1,49.9,29.77,SSE,159,1.5,10.5,54,0.00,,BKN200,0.00,VWS V14.01,2013-03-15 23:38:00,
2013-03-15 18:43:00,67.0,50.3,29.76,SSE,165,7.5,12.0,55,0.00,,BKN200,0.00,VWS V14.01,2013-03-15 23:43:00,
2013-03-15 18:48:00,66.9,50.2,29.76,South,173,7.5,12.0,55,0.00,,BKN200,0.00,VWS V14.01,2013-03-15 23:48:00,
2013-03-15 18:53:00,66.8,50.1,29.76,SSE,159,3.0,12.0,55,0.00,,BKN200,0.00,VWS V14.01,2013-03-15 23:53:00,
2013-03-15 18:58:00,66.7,50.0,29.76,SSE,163,0.0,12.0,55,0.00,,BKN200,0.00,VWS V14.01,2013-03-15 23:58:00,
2013-03-15 19:03:00,66.7,50.0,29.76,SSE,163,0.0,6.0,55,0.00,,BKN200,0.00,VWS V14.01,2013-03-16 00:03:00,
2013-03-15 19:08:00,66.5,50.3,29.75,SSE,163,0.0,6.0,56,0.00,,BKN200,0.00,VWS V14.01,2013-03-16 00:08:00,
2013-03-15 19:13:00,66.4,50.2,29.75,SSE,163,0.0,6.0,56,0.00,,BKN200,0.00,VWS V14.01,2013-03-16 00:13:00,
2013-03-15 19:18:00,66.3,50.6,29.75,SSE,153,0.0,9.0,57,0.00,,BKN200,0.00,VWS V14.01,2013-03-16 00:18:00,
2013-03-15 19:23:00,66.2,50.5,29.75,South,170,0.0,9.0,57,0.00,,BKN200,0.00,VWS V14.01,2013-03-16 00:23:00,
2013-03-15 19:28:00,66.0,50.8,29.75,South,170,1.5,9.0,58,0.00,,BKN200,0.00,VWS V14.01,2013-03-16 00:28:00,
2013-03-15 19:33:00,65.9,50.7,29.74,SSE,167,6.0,7.5,58,0.00,,BKN200,0.00,VWS V14.01,2013-03-16 00:33:00,
2013-03-15 19:38:00,65.7,51.0,29.74,SSE,165,0.0,9.0,59,0.00,,BKN200,0.00,VWS V14.01,2013-03-16 00:38:00,
2013-03-15 19:43:00,65.6,50.9,29.74,SSE,163,9.0,12.0,59,0.00,,BKN200,0.00,VWS V14.01,2013-03-16 00:43:00,
2013-03-15 19:48:00,65.4,51.2,29.73,SSE,165,9.0,12.0,60,0.00,,BKN200,0.00,VWS V14.01,2013-03-16 00:48:00,
2013-03-15 19:53:00,65.3,51.1,29.73,South,169,6.0,12.0,60,0.00,,BKN200,0.00,VWS V14.01,2013-03-16 00:53:00,
2013-03-15 19:58:00,65.3,51.5,29.72,South,183,6.0,12.0,61,0.00,,BKN200,0.00,VWS V14.01,2013-03-16 00:58:00,
2013-03-15 20:03:00,65.3,51.5,29.72,SSE,167,9.0,12.0,61,0.00,,BKN200,0.00,VWS V14.01,2013-03-16 01:03:00,
2013-03-15 20:08:00,65.3,51.5,29.72,SSE,168,9.0,12.0,61,0.00,,BKN200,0.00,VWS V14.01,2013-03-16 01:08:00,
2013-03-15 20:13:00,65.4,52.1,29.72,South,169,9.0,16.5,62,0.00,,BKN200,0.00,VWS V14.01,2013-03-16 01:13:00,
2013-03-15 20:18:00,65.4,52.1,29.72,SSE,161,10.5,16.5,62,0.00,,CLR,0.00,VWS V14.01,2013-03-16 01:18:00,
2013-03-15 20:23:00,65.5,52.2,29.72,SSE,157,10.5,16.5,62,0.00,,CLR,0.00,VWS V14.01,2013-03-16 01:23:00,
2013-03-15 20:28:00,65.4,52.1,29.72,South,171,10.5,16.5,62,0.00,,CLR,0.00,VWS V14.01,2013-03-16 01:28:00,
2013-03-15 20:33:00,65.3,52.4,29.72,South,170,7.5,12.0,63,0.00,,CLR,0.00,VWS V14.01,2013-03-16 01:33:00,
2013-03-15 20:38:00,65.2,52.3,29.71,SSE,167,12.0,15.0,63,0.00,,CLR,0.00,VWS V14.01,2013-03-16 01:38:00,
2013-03-15 20:43:00,65.1,52.2,29.71,SSE,165,15.0,15.0,63,0.00,,CLR,0.00,VWS V14.01,2013-03-16 01:43:00,
2013-03-15 20:48:00,65.2,52.3,29.71,South,173,10.5,18.0,63,0.00,,CLR,0.00,VWS V14.01,2013-03-16 01:48:00,
2013-03-15 20:53:00,65.3,52.4,29.71,South,182,7.5,18.0,63,0.00,,CLR,0.00,VWS V14.01,2013-03-16 01:53:00,
2013-03-15 20:58:00,65.4,52.5,29.71,South,174,9.0,18.0,63,0.00,,CLR,0.00,VWS V14.01,2013-03-16 01:58:00,
2013-03-15 21:03:00,65.4,52.5,29.71,South,187,9.0,15.0,63,0.00,,CLR,0.00,VWS V14.01,2013-03-16 02:03:00,
2013-03-15 21:09:00,65.4,52.5,29.71,SSW,211,9.0,15.0,63,0.00,,CLR,0.00,VWS V14.01,2013-03-16 02:09:00,
2013-03-15 21:14:00,65.5,52.6,29.71,SW,214,9.0,15.0,63,0.00,,CLR,0.00,VWS V14.01,2013-03-16 02:14:00,
2013-03-15 21:19:00,65.6,53.1,29.71,South,190,7.5,15.0,64,0.00,,CLR,0.00,VWS V14.01,2013-03-16 02:19:00,
2013-03-15 21:24:00,65.7,52.8,29.71,WSW,237,10.5,18.0,63,0.00,,CLR,0.00,VWS V14.01,2013-03-16 02:24:00,
2013-03-15 21:29:00,65.8,52.9,29.71,SW,224,10.5,18.0,63,0.00,,CLR,0.00,VWS V14.01,2013-03-16 02:29:00,
2013-03-15 21:34:00,66.0,53.1,29.71,SSW,209,13.5,13.5,63,0.00,,CLR,0.00,VWS V14.01,2013-03-16 02:34:00,
2013-03-15 21:39:00,66.2,53.2,29.72,SSW,202,10.5,18.0,63,0.00,,CLR,0.00,VWS V14.01,2013-03-16 02:39:00,
2013-03-15 21:44:00,66.5,53.5,29.71,South,188,12.0,18.0,63,0.00,,CLR,0.00,VWS V14.01,2013-03-16 02:44:00,
2013-03-15 21:49:00,67.0,53.6,29.71,SSW,198,13.5,21.0,62,0.00,,CLR,0.00,VWS V14.01,2013-03-16 02:49:00,
2013-03-15 21:54:00,67.4,53.5,29.71,South,190,10.5,21.0,61,0.00,,CLR,0.00,VWS V14.01,2013-03-16 02:54:00,
2013-03-15 21:59:00,67.7,53.8,29.71,South,184,12.0,21.0,61,0.00,,CLR,0.00,VWS V14.01,2013-03-16 02:59:00,
2013-03-15 22:04:00,67.7,53.8,29.71,SSW,213,7.5,18.0,61,0.00,,CLR,0.00,VWS V14.01,2013-03-16 03:04:00,
2013-03-15 22:09:00,67.8,53.4,29.72,SSW,200,13.5,21.0,60,0.00,,CLR,0.00,VWS V14.01,2013-03-16 03:09:00,
2013-03-15 22:14:00,67.8,53.4,29.72,SW,217,10.5,21.0,60,0.00,,CLR,0.00,VWS V14.01,2013-03-16 03:14:00,
2013-03-15 22:19:00,67.6,53.2,29.71,South,182,12.0,21.0,60,0.00,,CLR,0.00,VWS V14.01,2013-03-16 03:19:00,
2013-03-15 22:24:00,67.4,53.0,29.72,South,189,7.5,21.0,60,0.00,,CLR,0.00,VWS V14.01,2013-03-16 03:24:00,
2013-03-15 22:29:00,67.3,53.0,29.71,South,175,16.5,21.0,60,0.00,,CLR,0.00,VWS V14.01,2013-03-16 03:29:00,
2013-03-15 22:34:00,67.1,53.2,29.70,South,181,7.5,21.0,61,0.00,,CLR,0.00,VWS V14.01,2013-03-16 03:34:00,
2013-03-15 22:39:00,67.0,53.1,29.71,SSW,205,15.0,25.5,61,0.00,,CLR,0.00,VWS V14.01,2013-03-16 03:39:00,
2013-03-15 22:44:00,67.0,53.1,29.70,SSW,202,12.0,25.5,61,0.00,,CLR,0.00,VWS V14.01,2013-03-16 03:44:00,
2013-03-15 22:49:00,66.8,52.9,29.70,South,190,12.0,25.5,61,0.00,,CLR,0.00,VWS V14.01,2013-03-16 03:49:00,
2013-03-15 22:54:00,66.8,52.5,29.70,SSW,193,6.0,25.5,60,0.00,,CLR,0.00,VWS V14.01,2013-03-16 03:54:00,
2013-03-15 22:59:00,66.6,52.3,29.70,SW,222,12.0,12.0,60,0.00,,CLR,0.00,VWS V14.01,2013-03-16 03:59:00,
2013-03-15 23:00:00,66.6,52.3,29.70,SSW,194,12.0,12.0,60,0.00,,CLR,0.00,VWS V14.01,2013-03-16 04:00:00,
2013-03-15 23:05:00,66.4,52.1,29.70,SSW,200,13.5,16.5,60,0.00,,CLR,0.00,VWS V14.01,2013-03-16 04:05:00,
2013-03-15 23:10:00,66.4,52.1,29.70,SSW,205,6.0,19.5,60,0.00,,CLR,0.00,VWS V14.01,2013-03-16 04:10:00,
2013-03-15 23:15:00,66.4,52.1,29.70,SSW,211,9.0,19.5,60,0.00,,CLR,0.00,VWS V14.01,2013-03-16 04:15:00,
2013-03-15 23:20:00,66.3,52.0,29.70,South,173,12.0,19.5,60,0.00,,CLR,0.00,VWS V14.01,2013-03-16 04:20:00,
2013-03-15 23:25:00,66.2,51.9,29.69,SSW,209,7.5,25.5,60,0.00,,CLR,0.00,VWS V14.01,2013-03-16 04:25:00,
2013-03-15 23:30:00,66.1,51.8,29.70,WSW,240,9.0,19.5,60,0.00,,CLR,0.00,VWS V14.01,2013-03-16 04:30:00,
2013-03-15 23:35:00,66.3,51.6,29.69,South,189,12.0,24.0,59,0.00,,CLR,0.00,VWS V14.01,2013-03-16 04:35:00,
2013-03-15 23:40:00,66.2,51.5,29.69,SSW,209,15.0,24.0,59,0.00,,CLR,0.00,VWS V14.01,2013-03-16 04:40:00,
2013-03-15 23:45:00,66.1,51.4,29.69,SSW,209,7.5,24.0,59,0.00,,CLR,0.00,VWS V14.01,2013-03-16 04:45:00,
2013-03-15 23:50:00,66.1,51.4,29.68,SSW,202,12.0,24.0,59,0.00,,CLR,0.00,VWS V14.01,2013-03-16 04:50:00,
2013-03-15 23:55:00,65.9,51.6,29.69,South,172,10.5,24.0,60,0.00,,CLR,0.00,VWS V14.01,2013-03-16 04:55:00,